Estación de La Cruz
Ultimos registro cada 15 minutos 66
| N° | Estación | Fecha / Hora | Temperatura | Humedad | Lluvia | Velocidad | Dirección | Radiación | Presion |
| 66 | La Cruz | 03-05-2026 16:15 | 28,5 | 20,9 | 0 | 0 | 246 | 153,1 | 997,1 |
| 65 | La Cruz | 03-05-2026 16:00 | 28,4 | 21,4 | 0 | 0 | 225 | 346,9 | 997,1 |
| 64 | La Cruz | 03-05-2026 15:45 | 28,9 | 24,5 | 0 | 0 | 213 | 174,4 | 997,2 |
| 63 | La Cruz | 03-05-2026 15:30 | 29,1 | 26,2 | 0 | 0 | 222 | 128,1 | 997,3 |
| 62 | La Cruz | 03-05-2026 15:15 | 28,7 | 26,4 | 0 | 0 | 225 | 369,4 | 997,3 |
| 61 | La Cruz | 03-05-2026 15:00 | 27,7 | 27,9 | 0 | 0,5 | 177 | 486,9 | 997,5 |
| 60 | La Cruz | 03-05-2026 14:45 | 27,4 | 31,6 | 0 | 0,5 | 219 | 515,6 | 997,6 |
| 59 | La Cruz | 03-05-2026 14:30 | 28,2 | 31,2 | 0 | 0,5 | 211 | 544,4 | 997,6 |
| 58 | La Cruz | 03-05-2026 14:15 | 28,1 | 30,8 | 0 | 0,5 | 240 | 565,6 | 997,5 |
| 57 | La Cruz | 03-05-2026 14:00 | 27,8 | 34,1 | 0 | 0 | 192 | 589,4 | 997,6 |
| 56 | La Cruz | 03-05-2026 13:45 | 27,2 | 34,6 | 0 | 0 | 204 | 606,9 | 997,5 |
| 55 | La Cruz | 03-05-2026 13:30 | 27,1 | 33,7 | 0 | 0 | 143 | 621,9 | 997,4 |
| 54 | La Cruz | 03-05-2026 13:15 | 27 | 36,7 | 0 | 0 | 199 | 633,1 | 997,5 |
| 53 | La Cruz | 03-05-2026 13:00 | 25,9 | 36,9 | 0 | 0 | 173 | 636,9 | 998 |
| 52 | La Cruz | 03-05-2026 12:45 | 25,6 | 40 | 0 | 0 | 197 | 638,1 | 998,1 |
| 51 | La Cruz | 03-05-2026 12:30 | 25,7 | 39,5 | 0 | 0 | 183 | 635,6 | 998,1 |
| 50 | La Cruz | 03-05-2026 12:15 | 24,6 | 43 | 0 | 0 | 205 | 626,9 | 998,4 |
| 49 | La Cruz | 03-05-2026 12:00 | 24,5 | 42,7 | 0 | 0 | 150 | 620,6 | 998,6 |
| 48 | La Cruz | 03-05-2026 11:45 | 22,5 | 48 | 0 | 0 | 192 | 604,4 | 998,7 |
| 47 | La Cruz | 03-05-2026 11:30 | 22 | 49,2 | 0 | 0 | 190 | 584,4 | 998,8 |
| 46 | La Cruz | 03-05-2026 11:15 | 22,6 | 48 | 0 | 0 | 180 | 564,4 | 998,8 |
| 45 | La Cruz | 03-05-2026 11:00 | 22,1 | 50,2 | 0 | 0 | 161 | 545,6 | 998,3 |
| 44 | La Cruz | 03-05-2026 10:45 | 23 | 48,2 | 0 | 0 | 152 | 521,9 | 998,2 |
| 43 | La Cruz | 03-05-2026 10:30 | 21,2 | 50,8 | 0 | 0 | 220 | 491,9 | 998,4 |
| 42 | La Cruz | 03-05-2026 10:15 | 19,3 | 56,9 | 0 | 0 | 218 | 461,9 | 998,6 |
| 41 | La Cruz | 03-05-2026 10:00 | 19,1 | 57,5 | 0 | 0 | 149 | 428,1 | 998,8 |
| 40 | La Cruz | 03-05-2026 09:45 | 17,6 | 60,9 | 0 | 0 | 161 | 353,1 | 998,7 |
| 39 | La Cruz | 03-05-2026 09:30 | 15,9 | 63,5 | 0 | 0 | 201 | 106,9 | 998,9 |
| 38 | La Cruz | 03-05-2026 09:15 | 14,7 | 67,9 | 0 | 0 | 298 | 40,6 | 998,7 |
| 37 | La Cruz | 03-05-2026 09:00 | 12,8 | 76,4 | 0 | 0 | 253 | 91,9 | 998,3 |
| 36 | La Cruz | 03-05-2026 08:45 | 10,6 | 83,9 | 0 | 0 | 253 | 66,9 | 998,4 |
| 35 | La Cruz | 03-05-2026 08:30 | 8,9 | 88,9 | 0 | 0 | 298 | 44,4 | 998,2 |
| 34 | La Cruz | 03-05-2026 08:15 | 8,7 | 91,5 | 0 | 0 | 307 | 33,1 | 998,2 |
| 33 | La Cruz | 03-05-2026 08:00 | 7,9 | 93,9 | 0 | 0 | 278 | 16,9 | 998,1 |
| 32 | La Cruz | 03-05-2026 07:45 | 5,7 | 92,8 | 0 | 0 | 191 | 8,1 | 998 |
| 31 | La Cruz | 03-05-2026 07:30 | 5,4 | 91,8 | 0 | 0 | 173 | 4,4 | 998,3 |
| 30 | La Cruz | 03-05-2026 07:15 | 6,2 | 92,3 | 0 | 0 | 173 | 0,6 | 998,1 |
| 29 | La Cruz | 03-05-2026 07:00 | 5,5 | 91,7 | 0 | 0 | 173 | 0,6 | 997,9 |
| 28 | La Cruz | 03-05-2026 06:45 | 5,5 | 90,8 | 0 | 0 | 173 | 0,6 | 997,8 |
| 27 | La Cruz | 03-05-2026 06:30 | 5,8 | 90,4 | 0 | 0 | 173 | 0,6 | 997,7 |
| 26 | La Cruz | 03-05-2026 06:15 | 6,3 | 90 | 0 | 0 | 173 | 0,6 | 997,7 |
| 25 | La Cruz | 03-05-2026 06:00 | 7 | 90,1 | 0 | 0 | 173 | 0,6 | 997,7 |
| 24 | La Cruz | 03-05-2026 05:45 | 7,6 | 90,6 | 0 | 0 | 173 | 0,6 | 997,7 |
| 23 | La Cruz | 03-05-2026 05:30 | 7,1 | 90,3 | 0 | 0 | 173 | 0,6 | 997,6 |
| 22 | La Cruz | 03-05-2026 05:15 | 7,1 | 89,6 | 0 | 0 | 173 | 0,6 | 997,4 |
| 21 | La Cruz | 03-05-2026 05:00 | 7,8 | 88,2 | 0 | 0 | 173 | 0,6 | 997 |
| 20 | La Cruz | 03-05-2026 04:45 | 9,2 | 89,7 | 0 | 0 | 355 | 0,6 | 996,9 |
| 19 | La Cruz | 03-05-2026 04:30 | 8,1 | 92,5 | 0 | 0 | 41 | 0,6 | 996,9 |
| 18 | La Cruz | 03-05-2026 04:15 | 6,5 | 91,9 | 0 | 0 | 166 | 0,6 | 997,3 |
| 17 | La Cruz | 03-05-2026 04:00 | 6,4 | 91,2 | 0 | 0 | 166 | 0,6 | 997,8 |
| 16 | La Cruz | 03-05-2026 03:45 | 7 | 91,1 | 0 | 0 | 166 | 0,6 | 997,9 |
| 15 | La Cruz | 03-05-2026 03:30 | 6,7 | 90,7 | 0 | 0 | 166 | 0,6 | 998,3 |
| 14 | La Cruz | 03-05-2026 03:15 | 7 | 89,8 | 0 | 0 | 166 | 0,6 | 998,3 |
| 13 | La Cruz | 03-05-2026 03:00 | 7,4 | 89,6 | 0 | 0 | 166 | 0,6 | 998,6 |
| 12 | La Cruz | 03-05-2026 02:45 | 7,7 | 89,3 | 0 | 0 | 166 | 0,6 | 998,3 |
| 11 | La Cruz | 03-05-2026 02:30 | 7,9 | 88,6 | 0 | 0 | 166 | 0,6 | 998,4 |
| 10 | La Cruz | 03-05-2026 02:15 | 8,3 | 87,9 | 0 | 0 | 166 | 0,6 | 998,4 |
| 9 | La Cruz | 03-05-2026 02:00 | 8,7 | 86,3 | 0 | 0 | 166 | 0,6 | 998,7 |
| 8 | La Cruz | 03-05-2026 01:45 | 9,5 | 84,1 | 0 | 0 | 167 | 0,6 | 998,7 |
| 7 | La Cruz | 03-05-2026 01:30 | 10,5 | 81,2 | 0 | 0 | 198 | 0,6 | 998,3 |
| 6 | La Cruz | 03-05-2026 01:15 | 10,1 | 84,2 | 0 | 0 | 257 | 0,6 | 997,6 |
| 5 | La Cruz | 03-05-2026 01:00 | 10,1 | 87,2 | 0 | 0 | 21 | 0,6 | 997,1 |
| 4 | La Cruz | 03-05-2026 00:45 | 9 | 90,5 | 0 | 0 | 248 | 0,6 | 997,5 |
| 3 | La Cruz | 03-05-2026 00:30 | 8,5 | 89,8 | 0 | 0 | 244 | 0,6 | 997,5 |
| 2 | La Cruz | 03-05-2026 00:15 | 8,3 | 89,1 | 0 | 0 | 244 | 0,6 | 998,1 |
| 1 | La Cruz | 03-05-2026 00:00 | 9 | 89,5 | 0 | 0 | 244 | 0,6 | 998,1 |